Time,TemperatureF,DewpointF,PressureIn,WindDirection,WindDirectionDegrees,WindSpeedMPH,WindSpeedGustMPH,Humidity,HourlyPrecipIn,Conditions,Clouds,dailyrainin,SoftwareType,DateUTC
2013-03-09 00:00:00,66.1,63.1,30.05,ESE,108,7.0,12.0,90,0.00,,---,0.00,VWS V14.01,2013-03-09 06:00:00,
2013-03-09 00:05:00,66.0,63.0,30.05,SE,134,5.0,8.0,90,0.00,,---,0.00,VWS V14.01,2013-03-09 06:05:00,
2013-03-09 00:10:00,66.0,63.0,30.05,SE,131,5.0,9.0,90,0.00,,---,0.00,VWS V14.01,2013-03-09 06:10:00,
2013-03-09 00:15:00,65.9,63.2,30.04,ESE,121,3.0,10.0,91,0.00,,---,0.00,VWS V14.01,2013-03-09 06:15:00,
2013-03-09 00:20:00,65.8,63.1,30.03,ESE,120,5.0,10.0,91,0.00,,---,0.00,VWS V14.01,2013-03-09 06:20:00,
2013-03-09 00:25:00,65.8,63.1,30.03,SE,129,4.0,11.0,91,0.00,,---,0.00,VWS V14.01,2013-03-09 06:25:00,
2013-03-09 00:30:00,65.8,63.1,30.03,SE,129,11.0,11.0,91,0.00,,---,0.00,VWS V14.01,2013-03-09 06:30:00,
2013-03-09 00:35:00,65.7,63.0,30.02,SE,125,4.0,11.0,91,0.00,,---,0.00,VWS V14.01,2013-03-09 06:35:00,
2013-03-09 00:40:00,65.8,63.1,30.02,SE,128,9.0,11.0,91,0.00,,---,0.00,VWS V14.01,2013-03-09 06:40:00,
2013-03-09 00:45:00,65.8,63.1,30.02,SE,127,7.0,11.0,91,0.00,,---,0.00,VWS V14.01,2013-03-09 06:45:00,
2013-03-09 00:50:00,65.8,63.1,30.02,East,101,4.0,13.0,91,0.00,,---,0.00,VWS V14.01,2013-03-09 06:50:00,
2013-03-09 00:55:00,65.9,63.2,30.02,SE,143,7.0,13.0,91,0.00,,---,0.00,VWS V14.01,2013-03-09 06:55:00,
2013-03-09 01:00:00,65.9,63.2,30.02,SE,142,7.0,13.0,91,0.00,,---,0.00,VWS V14.01,2013-03-09 07:00:00,
2013-03-09 01:05:00,66.0,63.3,30.02,South,188,3.0,12.0,91,0.00,,---,0.00,VWS V14.01,2013-03-09 07:05:00,
2013-03-09 01:10:00,66.0,63.3,30.01,SE,134,10.0,13.0,91,0.00,,---,0.00,VWS V14.01,2013-03-09 07:10:00,
2013-03-09 01:15:00,66.1,63.4,30.01,SSE,148,7.0,13.0,91,0.00,,---,0.00,VWS V14.01,2013-03-09 07:15:00,
2013-03-09 01:20:00,66.1,63.4,30.01,SSE,158,7.0,13.0,91,0.00,,---,0.00,VWS V14.01,2013-03-09 07:20:00,
2013-03-09 01:25:00,66.1,63.7,30.01,ESE,112,6.0,13.0,92,0.00,,---,0.00,VWS V14.01,2013-03-09 07:25:00,
2013-03-09 01:30:00,66.1,63.7,30.00,SE,143,11.0,13.0,92,0.00,,---,0.00,VWS V14.01,2013-03-09 07:30:00,
2013-03-09 01:35:00,66.0,63.6,30.00,SE,144,3.0,13.0,92,0.00,,---,0.00,VWS V14.01,2013-03-09 07:35:00,
2013-03-09 01:40:00,65.9,63.5,30.00,ESE,110,6.0,13.0,92,0.00,,---,0.00,VWS V14.01,2013-03-09 07:40:00,
2013-03-09 01:45:00,65.9,63.5,30.00,SE,133,6.0,13.0,92,0.00,,---,0.00,VWS V14.01,2013-03-09 07:45:00,
2013-03-09 01:50:00,65.9,63.5,30.00,SE,136,9.0,13.0,92,0.00,,---,0.00,VWS V14.01,2013-03-09 07:50:00,
2013-03-09 01:55:00,65.9,63.5,30.00,ESE,105,8.0,13.0,92,0.00,,---,0.00,VWS V14.01,2013-03-09 07:55:00,
2013-03-09 02:00:00,65.8,63.7,29.99,ESE,105,6.0,13.0,93,0.00,,---,0.00,VWS V14.01,2013-03-09 08:00:00,
2013-03-09 02:05:00,65.8,63.7,29.99,SE,136,6.0,11.0,93,0.00,,---,0.00,VWS V14.01,2013-03-09 08:05:00,
2013-03-09 02:10:00,65.8,63.7,29.98,ESE,109,10.0,13.0,93,0.00,,---,0.00,VWS V14.01,2013-03-09 08:10:00,
2013-03-09 02:15:00,65.8,63.7,29.98,ESE,121,3.0,13.0,93,0.00,,---,0.00,VWS V14.01,2013-03-09 08:15:00,
2013-03-09 02:20:00,65.8,63.7,29.98,ESE,117,11.0,13.0,93,0.00,,---,0.00,VWS V14.01,2013-03-09 08:20:00,
2013-03-09 02:25:00,65.8,63.7,29.98,SSE,156,8.0,13.0,93,0.00,,---,0.00,VWS V14.01,2013-03-09 08:25:00,
2013-03-09 02:30:00,65.8,63.7,29.97,SSE,161,5.0,13.0,93,0.00,,---,0.00,VWS V14.01,2013-03-09 08:30:00,
2013-03-09 02:35:00,65.8,63.7,29.98,SE,136,5.0,13.0,93,0.00,,---,0.00,VWS V14.01,2013-03-09 08:35:00,
2013-03-09 02:40:00,65.9,63.8,29.97,East,85,5.0,13.0,93,0.00,,---,0.00,VWS V14.01,2013-03-09 08:40:00,
2013-03-09 02:45:00,66.0,63.9,29.97,ESE,109,5.0,13.0,93,0.00,,---,0.00,VWS V14.01,2013-03-09 08:45:00,
2013-03-09 02:50:00,66.0,63.9,29.97,SSE,153,8.0,13.0,93,0.00,,---,0.00,VWS V14.01,2013-03-09 08:50:00,
2013-03-09 02:55:00,66.1,64.0,29.97,SE,139,8.0,13.0,93,0.00,,---,0.00,VWS V14.01,2013-03-09 08:55:00,
2013-03-09 03:00:00,66.0,63.9,29.96,SSE,150,3.0,13.0,93,0.00,,---,0.00,VWS V14.01,2013-03-09 09:00:00,
2013-03-09 03:05:00,66.0,63.9,29.96,ESE,118,2.0,13.0,93,0.00,,---,0.00,VWS V14.01,2013-03-09 09:05:00,
2013-03-09 03:10:00,66.1,64.0,29.96,ESE,108,9.0,13.0,93,0.00,,---,0.00,VWS V14.01,2013-03-09 09:10:00,
2013-03-09 03:15:00,66.1,64.0,29.95,SE,131,8.0,13.0,93,0.00,,---,0.00,VWS V14.01,2013-03-09 09:15:00,
2013-03-09 03:20:00,66.1,64.0,29.95,SE,145,12.0,13.0,93,0.00,,---,0.00,VWS V14.01,2013-03-09 09:20:00,
2013-03-09 03:25:00,66.1,64.0,29.95,East,86,6.0,13.0,93,0.00,,---,0.00,VWS V14.01,2013-03-09 09:25:00,
2013-03-09 03:30:00,66.0,63.9,29.95,ESE,111,5.0,13.0,93,0.00,,---,0.00,VWS V14.01,2013-03-09 09:30:00,
2013-03-09 03:35:00,66.0,63.9,29.94,ESE,110,6.0,13.0,93,0.00,,---,0.00,VWS V14.01,2013-03-09 09:35:00,
2013-03-09 03:40:00,66.1,64.0,29.93,SSE,148,4.0,17.0,93,0.00,,---,0.00,VWS V14.01,2013-03-09 09:40:00,
2013-03-09 03:45:00,66.1,64.0,29.93,ESE,115,8.0,17.0,93,0.00,,---,0.00,VWS V14.01,2013-03-09 09:45:00,
2013-03-09 03:50:00,66.1,64.0,29.93,SE,132,5.0,17.0,93,0.00,,---,0.00,VWS V14.01,2013-03-09 09:50:00,
2013-03-09 03:55:00,66.1,64.0,29.93,SSE,156,6.0,17.0,93,0.00,,---,0.00,VWS V14.01,2013-03-09 09:55:00,
2013-03-09 04:00:00,66.2,64.1,29.93,SSE,159,7.0,17.0,93,0.00,,---,0.00,VWS V14.01,2013-03-09 10:00:00,
2013-03-09 04:05:00,66.3,64.2,29.92,South,181,7.0,12.0,93,0.00,,---,0.00,VWS V14.01,2013-03-09 10:05:00,
2013-03-09 04:10:00,66.3,64.2,29.92,ESE,121,6.0,13.0,93,0.00,,---,0.00,VWS V14.01,2013-03-09 10:10:00,
2013-03-09 04:15:00,66.4,64.3,29.92,SE,125,6.0,13.0,93,0.00,,---,0.00,VWS V14.01,2013-03-09 10:15:00,
2013-03-09 04:20:00,66.6,64.5,29.92,South,173,6.0,14.0,93,0.00,,---,0.00,VWS V14.01,2013-03-09 10:20:00,
2013-03-09 04:25:00,66.7,64.6,29.93,SE,125,10.0,14.0,93,0.00,,---,0.00,VWS V14.01,2013-03-09 10:25:00,
2013-03-09 04:30:00,66.8,64.4,29.94,SSE,150,4.0,15.0,92,0.00,,---,0.00,VWS V14.01,2013-03-09 10:30:00,
2013-03-09 04:35:00,66.8,64.4,29.94,SSE,150,9.0,15.0,92,0.00,,---,0.00,VWS V14.01,2013-03-09 10:35:00,
2013-03-09 04:40:00,66.9,64.5,29.94,SSE,168,10.0,15.0,92,0.00,,---,0.00,VWS V14.01,2013-03-09 10:40:00,
2013-03-09 04:45:00,67.0,64.6,29.93,ESE,120,7.0,15.0,92,0.00,,---,0.00,VWS V14.01,2013-03-09 10:45:00,
2013-03-09 04:50:00,67.1,64.7,29.93,South,191,11.0,16.0,92,0.00,,---,0.00,VWS V14.01,2013-03-09 10:50:00,
2013-03-09 04:55:00,67.0,64.6,29.93,SSE,166,10.0,16.0,92,0.00,,---,0.00,VWS V14.01,2013-03-09 10:55:00,
2013-03-09 05:00:00,67.0,64.6,29.93,SE,143,6.0,16.0,92,0.00,,---,0.00,VWS V14.01,2013-03-09 11:00:00,
2013-03-09 05:05:00,67.1,64.7,29.93,SSE,163,6.0,11.0,92,0.00,,---,0.00,VWS V14.01,2013-03-09 11:05:00,
2013-03-09 05:10:00,67.1,64.4,29.94,South,171,6.0,11.0,91,0.00,,---,0.00,VWS V14.01,2013-03-09 11:10:00,
2013-03-09 05:15:00,67.0,64.3,29.93,SSE,149,8.0,11.0,91,0.00,,---,0.00,VWS V14.01,2013-03-09 11:15:00,
2013-03-09 05:20:00,66.9,64.5,29.93,SSE,148,2.0,12.0,92,0.00,,---,0.00,VWS V14.01,2013-03-09 11:20:00,
2013-03-09 05:25:00,66.8,64.4,29.93,ESE,110,7.0,12.0,92,0.00,,---,0.00,VWS V14.01,2013-03-09 11:25:00,
2013-03-09 05:30:00,66.7,64.3,29.94,ESE,110,8.0,12.0,92,0.00,,---,0.00,VWS V14.01,2013-03-09 11:30:00,
2013-03-09 05:35:00,66.6,64.2,29.94,SE,139,4.0,12.0,92,0.00,,---,0.00,VWS V14.01,2013-03-09 11:35:00,
2013-03-09 05:40:00,66.6,64.2,29.94,SE,141,6.0,12.0,92,0.00,,---,0.00,VWS V14.01,2013-03-09 11:40:00,
2013-03-09 05:45:00,66.6,64.2,29.94,SSE,156,4.0,12.0,92,0.00,,---,0.00,VWS V14.01,2013-03-09 11:45:00,
2013-03-09 05:50:00,66.6,64.2,29.94,SSE,153,4.0,12.0,92,0.00,,---,0.00,VWS V14.01,2013-03-09 11:50:00,
2013-03-09 05:55:00,66.6,64.2,29.94,SSE,149,5.0,12.0,92,0.00,,---,0.00,VWS V14.01,2013-03-09 11:55:00,
2013-03-09 06:00:00,66.5,64.1,29.94,SE,142,4.0,12.0,92,0.00,,---,0.00,VWS V14.01,2013-03-09 12:00:00,
2013-03-09 06:05:00,66.4,64.3,29.94,South,181,4.0,7.0,93,0.00,,---,0.00,VWS V14.01,2013-03-09 12:05:00,
2013-03-09 06:10:00,66.4,64.3,29.93,SE,142,3.0,7.0,93,0.00,,---,0.00,VWS V14.01,2013-03-09 12:10:00,
2013-03-09 06:15:00,66.3,64.2,29.93,South,170,4.0,8.0,93,0.00,,---,0.00,VWS V14.01,2013-03-09 12:15:00,
2013-03-09 06:20:00,66.2,64.1,29.94,SE,134,4.0,8.0,93,0.00,,---,0.00,VWS V14.01,2013-03-09 12:20:00,
2013-03-09 06:25:00,66.1,64.0,29.94,SE,124,6.0,9.0,93,0.00,,---,0.00,VWS V14.01,2013-03-09 12:25:00,
2013-03-09 06:30:00,66.0,63.9,29.94,SE,129,4.0,9.0,93,0.00,,---,0.00,VWS V14.01,2013-03-09 12:30:00,
2013-03-09 06:35:00,65.9,63.8,29.94,ESE,115,4.0,9.0,93,0.00,,---,0.00,VWS V14.01,2013-03-09 12:35:00,
2013-03-09 06:40:00,65.8,63.7,29.94,ESE,115,2.0,9.0,93,0.00,,---,0.00,VWS V14.01,2013-03-09 12:40:00,
2013-03-09 06:45:00,65.7,63.9,29.93,SSE,150,8.0,9.0,94,0.00,,---,0.00,VWS V14.01,2013-03-09 12:45:00,
2013-03-09 06:50:00,65.7,63.9,29.93,SSW,195,5.0,9.0,94,0.00,,---,0.00,VWS V14.01,2013-03-09 12:50:00,
2013-03-09 06:55:00,65.7,63.9,29.93,SE,132,3.0,9.0,94,0.00,,---,0.00,VWS V14.01,2013-03-09 12:55:00,
2013-03-09 07:00:00,65.7,63.9,29.94,ESE,105,4.0,9.0,94,0.00,,---,0.00,VWS V14.01,2013-03-09 13:00:00,
2013-03-09 07:05:00,65.8,64.0,29.94,SE,129,4.0,8.0,94,0.00,,---,0.00,VWS V14.01,2013-03-09 13:05:00,
2013-03-09 07:10:00,65.9,64.1,29.94,SSE,155,8.0,9.0,94,0.00,,---,0.00,VWS V14.01,2013-03-09 13:10:00,
2013-03-09 07:15:00,66.0,64.2,29.94,SE,142,5.0,9.0,94,0.00,,---,0.00,VWS V14.01,2013-03-09 13:15:00,
2013-03-09 07:20:00,66.1,64.3,29.94,SE,133,4.0,9.0,94,0.00,,---,0.00,VWS V14.01,2013-03-09 13:20:00,
2013-03-09 07:25:00,66.2,64.4,29.94,ESE,114,4.0,9.0,94,0.00,,---,0.00,VWS V14.01,2013-03-09 13:25:00,
2013-03-09 07:30:00,66.3,64.5,29.94,SSE,153,3.0,9.0,94,0.00,,---,0.00,VWS V14.01,2013-03-09 13:30:00,
2013-03-09 07:35:00,66.4,64.6,29.94,SE,133,2.0,9.0,94,0.00,,---,0.00,VWS V14.01,2013-03-09 13:35:00,
2013-03-09 07:40:00,66.4,64.6,29.94,SSE,153,4.0,9.0,94,0.00,,---,0.00,VWS V14.01,2013-03-09 13:40:00,
2013-03-09 07:45:00,66.4,64.6,29.94,SE,143,2.0,9.0,94,0.00,,---,0.00,VWS V14.01,2013-03-09 13:45:00,
2013-03-09 07:50:00,66.6,64.8,29.95,SE,142,4.0,9.0,94,0.00,,---,0.00,VWS V14.01,2013-03-09 13:50:00,
2013-03-09 07:55:00,66.7,64.9,29.95,SSE,149,2.0,9.0,94,0.00,,---,0.00,VWS V14.01,2013-03-09 13:55:00,
2013-03-09 08:00:00,66.7,64.6,29.95,SSE,150,3.0,11.0,93,0.00,,---,0.00,VWS V14.01,2013-03-09 14:00:00,
2013-03-09 08:05:00,66.8,64.7,29.95,ESE,121,3.0,9.0,93,0.00,,---,0.00,VWS V14.01,2013-03-09 14:05:00,
2013-03-09 08:10:00,66.8,64.7,29.95,SE,128,6.0,10.0,93,0.00,,---,0.00,VWS V14.01,2013-03-09 14:10:00,
2013-03-09 08:15:00,66.8,64.7,29.95,SSE,150,6.0,10.0,93,0.00,,---,0.00,VWS V14.01,2013-03-09 14:15:00,
2013-03-09 08:20:00,66.9,64.8,29.95,SE,134,4.0,10.0,93,0.00,,---,0.00,VWS V14.01,2013-03-09 14:20:00,
2013-03-09 08:25:00,66.9,64.8,29.95,SE,125,3.0,10.0,93,0.00,,---,0.00,VWS V14.01,2013-03-09 14:25:00,
2013-03-09 08:30:00,66.9,64.8,29.96,SE,143,5.0,10.0,93,0.00,,---,0.00,VWS V14.01,2013-03-09 14:30:00,
2013-03-09 08:35:00,66.8,64.7,29.96,ESE,122,4.0,10.0,93,0.00,,---,0.00,VWS V14.01,2013-03-09 14:35:00,
2013-03-09 08:40:00,66.9,64.8,29.96,SE,125,2.0,10.0,93,0.00,,---,0.00,VWS V14.01,2013-03-09 14:40:00,
2013-03-09 08:45:00,66.9,64.8,29.96,SSE,148,2.0,10.0,93,0.00,,---,0.00,VWS V14.01,2013-03-09 14:45:00,
2013-03-09 08:50:00,67.0,64.9,29.96,SE,135,4.0,10.0,93,0.00,,---,0.00,VWS V14.01,2013-03-09 14:50:00,
2013-03-09 08:55:00,67.0,64.9,29.96,ESE,114,3.0,10.0,93,0.00,,---,0.00,VWS V14.01,2013-03-09 14:55:00,
2013-03-09 09:00:00,67.0,64.9,29.95,SE,129,4.0,10.0,93,0.00,,---,0.00,VWS V14.01,2013-03-09 15:00:00,
2013-03-09 09:05:00,67.1,65.0,29.96,SE,146,5.0,8.0,93,0.00,,---,0.00,VWS V14.01,2013-03-09 15:05:00,
2013-03-09 09:10:00,67.1,65.0,29.96,SE,133,4.0,8.0,93,0.00,,---,0.00,VWS V14.01,2013-03-09 15:10:00,
2013-03-09 09:15:00,67.1,65.0,29.96,ESE,120,7.0,8.0,93,0.00,,---,0.00,VWS V14.01,2013-03-09 15:15:00,
2013-03-09 09:20:00,67.2,65.1,29.96,SSE,160,4.0,8.0,93,0.00,,---,0.00,VWS V14.01,2013-03-09 15:20:00,
2013-03-09 09:25:00,67.3,65.2,29.96,SE,145,4.0,10.0,93,0.00,,---,0.00,VWS V14.01,2013-03-09 15:25:00,
2013-03-09 09:30:00,67.6,65.5,29.96,SE,129,3.0,11.0,93,0.00,,---,0.00,VWS V14.01,2013-03-09 15:30:00,
2013-03-09 09:35:00,67.8,65.4,29.96,SE,129,8.0,13.0,92,0.00,,---,0.00,VWS V14.01,2013-03-09 15:35:00,
2013-03-09 09:40:00,68.0,65.6,29.96,ESE,122,7.0,14.0,92,0.00,,---,0.00,VWS V14.01,2013-03-09 15:40:00,
2013-03-09 09:45:00,68.2,65.8,29.96,South,174,12.0,14.0,92,0.00,,---,0.00,VWS V14.01,2013-03-09 15:45:00,
2013-03-09 09:50:00,68.4,65.7,29.95,ESE,109,8.0,15.0,91,0.00,,---,0.00,VWS V14.01,2013-03-09 15:50:00,
2013-03-09 09:55:00,68.6,65.9,29.96,South,174,7.0,15.0,91,0.00,,---,0.00,VWS V14.01,2013-03-09 15:55:00,
2013-03-09 10:00:00,68.6,65.9,29.96,ESE,117,6.0,15.0,91,0.00,,---,0.00,VWS V14.01,2013-03-09 16:00:00,
2013-03-09 10:05:00,68.6,65.9,29.96,SE,134,3.0,9.0,91,0.00,,---,0.00,VWS V14.01,2013-03-09 16:05:00,
2013-03-09 10:10:00,68.5,65.8,29.95,ESE,105,4.0,12.0,91,0.00,,---,0.00,VWS V14.01,2013-03-09 16:10:00,
2013-03-09 10:15:00,68.2,65.5,29.95,SSE,158,5.0,12.0,91,0.00,,---,0.00,VWS V14.01,2013-03-09 16:15:00,
2013-03-09 10:20:00,68.0,65.3,29.95,SE,129,8.0,13.0,91,0.00,,---,0.00,VWS V14.01,2013-03-09 16:20:00,
2013-03-09 10:25:00,67.7,65.3,29.95,SSE,153,5.0,13.0,92,0.00,,---,0.00,VWS V14.01,2013-03-09 16:25:00,
2013-03-09 10:30:00,67.7,65.3,29.95,SE,143,5.0,13.0,92,0.00,,---,0.00,VWS V14.01,2013-03-09 16:30:00,
2013-03-09 10:35:00,67.6,65.2,29.95,East,92,6.0,13.0,92,0.00,,---,0.00,VWS V14.01,2013-03-09 16:35:00,
2013-03-09 10:40:00,67.5,65.1,29.95,SE,138,7.0,13.0,92,0.00,,---,0.00,VWS V14.01,2013-03-09 16:40:00,
2013-03-09 10:45:00,67.5,65.1,29.95,SE,125,4.0,13.0,92,0.00,,---,0.00,VWS V14.01,2013-03-09 16:45:00,
2013-03-09 10:50:00,67.5,65.1,29.95,SE,129,8.0,13.0,92,0.00,,---,0.00,VWS V14.01,2013-03-09 16:50:00,
2013-03-09 10:55:00,67.9,65.8,29.95,ESE,115,4.0,13.0,93,0.00,,---,0.00,VWS V14.01,2013-03-09 16:55:00,
2013-03-09 11:00:00,68.4,66.0,29.95,SSE,150,7.0,13.0,92,0.00,,---,0.00,VWS V14.01,2013-03-09 17:00:00,
2013-03-09 11:05:00,68.8,66.1,29.95,SSE,157,6.0,9.0,91,0.00,,---,0.00,VWS V14.01,2013-03-09 17:05:00,
2013-03-09 11:10:00,69.0,65.9,29.94,SSE,152,6.0,13.0,90,0.00,,---,0.00,VWS V14.01,2013-03-09 17:10:00,
2013-03-09 11:15:00,69.2,66.2,29.94,ENE,75,8.0,13.0,90,0.00,,---,0.00,VWS V14.01,2013-03-09 17:15:00,
2013-03-09 11:20:00,69.7,66.3,29.94,SE,126,9.0,14.0,89,0.00,,---,0.00,VWS V14.01,2013-03-09 17:20:00,
2013-03-09 11:25:00,69.8,66.1,29.94,SE,139,10.0,15.0,88,0.00,,---,0.00,VWS V14.01,2013-03-09 17:25:00,
2013-03-09 11:30:00,70.0,66.6,29.94,ESE,121,6.0,15.0,89,0.00,,---,0.00,VWS V14.01,2013-03-09 17:30:00,
2013-03-09 11:35:00,70.0,66.3,29.94,SE,134,8.0,15.0,88,0.00,,---,0.00,VWS V14.01,2013-03-09 17:35:00,
2013-03-09 11:40:00,70.0,66.3,29.93,East,79,6.0,15.0,88,0.00,,---,0.00,VWS V14.01,2013-03-09 17:40:00,
2013-03-09 11:45:00,70.2,66.5,29.93,SE,129,12.0,15.0,88,0.00,,---,0.00,VWS V14.01,2013-03-09 17:45:00,
2013-03-09 11:50:00,70.5,66.4,29.93,ESE,118,6.0,15.0,87,0.00,,---,0.00,VWS V14.01,2013-03-09 17:50:00,
2013-03-09 11:55:00,70.7,66.7,29.92,ESE,118,5.0,15.0,87,0.00,,---,0.00,VWS V14.01,2013-03-09 17:55:00,
2013-03-09 12:00:00,70.7,66.7,29.92,ESE,115,7.0,15.0,87,0.00,,---,0.00,VWS V14.01,2013-03-09 18:00:00,
2013-03-09 12:05:00,70.8,66.7,29.92,SSE,161,6.0,13.0,87,0.00,,---,0.00,VWS V14.01,2013-03-09 18:05:00,
2013-03-09 12:10:00,71.0,66.9,29.92,ESE,120,9.0,13.0,87,0.00,,---,0.00,VWS V14.01,2013-03-09 18:10:00,
2013-03-09 12:15:00,71.3,67.2,29.91,SSE,149,5.0,14.0,87,0.00,,---,0.00,VWS V14.01,2013-03-09 18:15:00,
2013-03-09 12:20:00,71.1,66.7,29.91,ESE,121,12.0,16.0,86,0.00,,---,0.00,VWS V14.01,2013-03-09 18:20:00,
2013-03-09 12:25:00,71.4,67.3,29.91,ESE,118,12.0,16.0,87,0.00,,---,0.00,VWS V14.01,2013-03-09 18:25:00,
2013-03-09 12:30:00,71.7,67.3,29.90,SSE,159,7.0,17.0,86,0.00,,---,0.00,VWS V14.01,2013-03-09 18:30:00,
2013-03-09 12:35:00,71.7,67.3,29.90,SE,145,9.0,17.0,86,0.00,,---,0.00,VWS V14.01,2013-03-09 18:35:00,
2013-03-09 12:40:00,71.8,67.4,29.89,SSE,165,9.0,18.0,86,0.00,,---,0.00,VWS V14.01,2013-03-09 18:40:00,
2013-03-09 12:45:00,71.8,67.1,29.89,SE,139,11.0,18.0,85,0.00,,---,0.00,VWS V14.01,2013-03-09 18:45:00,
2013-03-09 12:50:00,71.8,67.1,29.89,SE,133,9.0,18.0,85,0.00,,---,0.00,VWS V14.01,2013-03-09 18:50:00,
2013-03-09 12:55:00,71.8,67.1,29.88,SE,139,15.0,18.0,85,0.00,,---,0.00,VWS V14.01,2013-03-09 18:55:00,
2013-03-09 13:00:00,72.0,67.2,29.88,East,98,12.0,18.0,85,0.00,,---,0.00,VWS V14.01,2013-03-09 19:00:00,
2013-03-09 13:05:00,72.1,67.0,29.87,SE,134,13.0,15.0,84,0.00,,---,0.00,VWS V14.01,2013-03-09 19:05:00,
2013-03-09 13:10:00,72.0,66.9,29.87,SE,143,15.0,16.0,84,0.00,,---,0.00,VWS V14.01,2013-03-09 19:10:00,
2013-03-09 13:15:00,72.0,67.2,29.87,SE,143,7.0,19.0,85,0.00,,---,0.00,VWS V14.01,2013-03-09 19:15:00,
2013-03-09 13:20:00,71.9,66.8,29.86,ESE,113,11.0,23.0,84,0.00,,---,0.00,VWS V14.01,2013-03-09 19:20:00,
2013-03-09 13:25:00,71.7,66.9,29.86,ESE,120,15.0,23.0,85,0.00,,---,0.00,VWS V14.01,2013-03-09 19:25:00,
2013-03-09 13:30:00,71.6,66.5,29.86,SSE,150,9.0,23.0,84,0.00,,---,0.00,VWS V14.01,2013-03-09 19:30:00,
2013-03-09 13:35:00,71.6,66.9,29.86,SE,138,7.0,23.0,85,0.00,,---,0.00,VWS V14.01,2013-03-09 19:35:00,
2013-03-09 13:40:00,71.5,66.4,29.86,SE,128,13.0,23.0,84,0.00,,---,0.00,VWS V14.01,2013-03-09 19:40:00,
2013-03-09 13:45:00,71.4,66.7,29.86,SSE,152,11.0,23.0,85,0.00,,---,0.00,VWS V14.01,2013-03-09 19:45:00,
2013-03-09 13:50:00,71.7,67.3,29.85,SSE,147,13.0,23.0,86,0.00,,---,0.00,VWS V14.01,2013-03-09 19:50:00,
2013-03-09 13:55:00,71.9,66.8,29.85,SSE,155,9.0,23.0,84,0.00,,---,0.00,VWS V14.01,2013-03-09 19:55:00,
2013-03-09 14:00:00,71.6,66.5,29.85,SSE,159,9.0,23.0,84,0.00,,---,0.00,VWS V14.01,2013-03-09 20:00:00,
2013-03-09 14:05:00,71.5,66.8,29.85,SSE,152,9.0,16.0,85,0.00,,---,0.00,VWS V14.01,2013-03-09 20:05:00,
2013-03-09 14:10:00,71.8,67.1,29.85,SE,125,11.0,17.0,85,0.00,,---,0.00,VWS V14.01,2013-03-09 20:10:00,
2013-03-09 14:15:00,72.4,67.3,29.85,SE,124,10.0,17.0,84,0.00,,---,0.00,VWS V14.01,2013-03-09 20:15:00,
2013-03-09 14:20:00,72.1,67.0,29.85,SSE,167,11.0,17.0,84,0.00,,---,0.00,VWS V14.01,2013-03-09 20:20:00,
2013-03-09 14:25:00,72.0,66.9,29.85,SE,126,13.0,17.0,84,0.00,,---,0.00,VWS V14.01,2013-03-09 20:25:00,
2013-03-09 14:30:00,71.6,66.5,29.85,SSE,163,20.0,21.0,84,0.00,,---,0.00,VWS V14.01,2013-03-09 20:30:00,
2013-03-09 14:35:00,71.3,66.6,29.85,SE,127,16.0,21.0,85,0.00,,---,0.00,VWS V14.01,2013-03-09 20:35:00,
2013-03-09 14:40:00,71.2,66.5,29.85,ESE,117,11.0,21.0,85,0.00,,---,0.00,VWS V14.01,2013-03-09 20:40:00,
2013-03-09 14:45:00,71.2,66.5,29.85,SE,138,14.0,21.0,85,0.00,,---,0.00,VWS V14.01,2013-03-09 20:45:00,
2013-03-09 14:50:00,71.2,66.5,29.84,SE,124,7.0,21.0,85,0.00,,---,0.00,VWS V14.01,2013-03-09 20:50:00,
2013-03-09 14:55:00,71.4,66.7,29.84,SE,134,10.0,21.0,85,0.00,,---,0.00,VWS V14.01,2013-03-09 20:55:00,
2013-03-09 15:00:00,71.5,66.4,29.84,SSE,150,14.0,21.0,84,0.00,,---,0.00,VWS V14.01,2013-03-09 21:00:00,
2013-03-09 15:05:00,71.5,66.4,29.84,ESE,120,12.0,18.0,84,0.00,,---,0.00,VWS V14.01,2013-03-09 21:05:00,
2013-03-09 15:10:00,71.7,66.6,29.83,East,95,12.0,21.0,84,0.00,,---,0.00,VWS V14.01,2013-03-09 21:10:00,
2013-03-09 15:15:00,71.4,66.3,29.83,SE,129,12.0,21.0,84,0.00,,---,0.00,VWS V14.01,2013-03-09 21:15:00,
2013-03-09 15:20:00,71.0,66.3,29.82,SSE,158,6.0,21.0,85,0.00,,---,0.00,VWS V14.01,2013-03-09 21:20:00,
2013-03-09 15:25:00,70.6,66.2,29.82,SE,125,7.0,21.0,86,0.00,,---,0.00,VWS V14.01,2013-03-09 21:25:00,
2013-03-09 15:30:00,70.2,65.8,29.81,SE,132,10.0,21.0,86,0.00,,---,0.00,VWS V14.01,2013-03-09 21:30:00,
2013-03-09 15:35:00,69.9,65.9,29.81,ESE,112,7.0,21.0,87,0.00,,---,0.00,VWS V14.01,2013-03-09 21:35:00,
2013-03-09 15:40:00,69.6,65.9,29.81,ESE,113,17.0,21.0,88,0.00,,---,0.00,VWS V14.01,2013-03-09 21:40:00,
2013-03-09 15:45:00,70.0,66.3,29.80,SE,125,17.0,21.0,88,0.00,,---,0.00,VWS V14.01,2013-03-09 21:45:00,
2013-03-09 15:50:00,70.6,66.6,29.80,SSE,158,9.0,21.0,87,0.00,,---,0.00,VWS V14.01,2013-03-09 21:50:00,
2013-03-09 15:55:00,71.0,66.6,29.80,SE,138,18.0,21.0,86,0.00,,---,0.00,VWS V14.01,2013-03-09 21:55:00,
2013-03-09 16:00:00,71.0,66.3,29.80,East,98,8.0,21.0,85,0.00,,---,0.00,VWS V14.01,2013-03-09 22:00:00,
2013-03-09 16:05:00,71.0,66.6,29.80,SSE,167,8.0,16.0,86,0.00,,---,0.00,VWS V14.01,2013-03-09 22:05:00,
2013-03-09 16:10:00,71.0,66.6,29.80,ESE,122,11.0,16.0,86,0.00,,---,0.00,VWS V14.01,2013-03-09 22:10:00,
2013-03-09 16:15:00,70.9,66.2,29.80,SSE,155,8.0,16.0,85,0.00,,---,0.00,VWS V14.01,2013-03-09 22:15:00,
2013-03-09 16:20:00,70.8,66.4,29.80,ESE,115,11.0,16.0,86,0.00,,---,0.00,VWS V14.01,2013-03-09 22:20:00,
2013-03-09 16:25:00,70.8,66.4,29.81,SE,131,7.0,16.0,86,0.00,,---,0.00,VWS V14.01,2013-03-09 22:25:00,
2013-03-09 16:30:00,70.8,66.4,29.81,East,98,11.0,16.0,86,0.00,,---,0.00,VWS V14.01,2013-03-09 22:30:00,
2013-03-09 16:35:00,70.8,66.4,29.81,ESE,105,12.0,16.0,86,0.00,,---,0.00,VWS V14.01,2013-03-09 22:35:00,
2013-03-09 16:40:00,70.4,66.0,29.81,SE,125,5.0,16.0,86,0.00,,---,0.00,VWS V14.01,2013-03-09 22:40:00,
2013-03-09 16:45:00,70.4,66.3,29.81,SSE,149,6.0,16.0,87,0.00,,---,0.00,VWS V14.01,2013-03-09 22:45:00,
2013-03-09 16:50:00,70.3,66.2,29.80,SSE,149,5.0,16.0,87,0.00,,---,0.00,VWS V14.01,2013-03-09 22:50:00,
2013-03-09 16:55:00,70.2,66.2,29.80,SE,143,9.0,16.0,87,0.00,,---,0.00,VWS V14.01,2013-03-09 22:55:00,
2013-03-09 17:00:00,70.1,66.1,29.79,SE,143,8.0,16.0,87,0.00,,---,0.00,VWS V14.01,2013-03-09 23:00:00,
2013-03-09 17:05:00,69.9,65.9,29.80,East,86,7.0,14.0,87,0.00,,---,0.00,VWS V14.01,2013-03-09 23:05:00,
2013-03-09 17:10:00,69.9,66.2,29.80,SSE,149,4.0,14.0,88,0.00,,---,0.00,VWS V14.01,2013-03-09 23:10:00,
2013-03-09 17:15:00,69.9,66.2,29.80,SSE,148,11.0,15.0,88,0.00,,---,0.00,VWS V14.01,2013-03-09 23:15:00,
2013-03-09 17:20:00,69.6,65.9,29.80,ESE,105,7.0,15.0,88,0.00,,---,0.00,VWS V14.01,2013-03-09 23:20:00,
2013-03-09 17:25:00,69.5,65.8,29.79,ESE,120,10.0,15.0,88,0.00,,---,0.00,VWS V14.01,2013-03-09 23:25:00,
2013-03-09 17:30:00,69.3,65.6,29.79,East,89,10.0,15.0,88,0.00,,---,0.00,VWS V14.01,2013-03-09 23:30:00,
2013-03-09 17:35:00,69.1,65.7,29.78,SE,124,11.0,15.0,89,0.00,,---,0.00,VWS V14.01,2013-03-09 23:35:00,
2013-03-09 17:40:00,69.0,65.6,29.78,ESE,109,11.0,15.0,89,0.00,,---,0.00,VWS V14.01,2013-03-09 23:40:00,
2013-03-09 17:45:00,68.8,65.4,29.77,SSE,151,8.0,15.0,89,0.00,,---,0.00,VWS V14.01,2013-03-09 23:45:00,
2013-03-09 17:50:00,68.8,65.4,29.77,SSE,160,7.0,15.0,89,0.00,,---,0.00,VWS V14.01,2013-03-09 23:50:00,
2013-03-09 17:54:00,68.6,65.2,29.77,SSE,149,11.0,16.0,89,0.00,,---,0.00,VWS V14.01,2013-03-09 23:54:00,
2013-03-09 17:59:00,68.4,65.0,29.76,ESE,117,18.0,18.0,89,0.00,,---,0.00,VWS V14.01,2013-03-09 23:59:00,
2013-03-09 18:05:00,68.2,65.2,29.75,South,174,13.0,16.0,90,0.00,,---,0.00,VWS V14.01,2013-03-10 00:05:00,
2013-03-09 18:10:00,68.0,65.0,29.76,SE,140,8.0,18.0,90,0.00,,---,0.00,VWS V14.01,2013-03-10 00:10:00,
2013-03-09 18:14:00,67.8,65.1,29.76,ESE,113,11.0,18.0,91,0.00,,---,0.00,VWS V14.01,2013-03-10 00:14:00,
2013-03-09 18:19:00,67.6,64.9,29.76,SE,133,7.0,18.0,91,0.00,,---,0.00,VWS V14.01,2013-03-10 00:19:00,
2013-03-09 18:24:00,67.5,64.8,29.77,SE,134,8.0,18.0,91,0.00,,---,0.00,VWS V14.01,2013-03-10 00:24:00,
2013-03-09 18:29:00,67.5,64.8,29.77,ESE,111,8.0,18.0,91,0.00,,---,0.00,VWS V14.01,2013-03-10 00:29:00,
2013-03-09 18:34:00,67.4,65.0,29.77,SE,128,7.0,18.0,92,0.00,,---,0.00,VWS V14.01,2013-03-10 00:34:00,
2013-03-09 18:39:00,67.3,64.9,29.77,SE,145,9.0,18.0,92,0.00,,---,0.00,VWS V14.01,2013-03-10 00:39:00,
2013-03-09 18:44:00,67.2,64.8,29.77,SSE,153,8.0,18.0,92,0.00,,---,0.00,VWS V14.01,2013-03-10 00:44:00,
2013-03-09 18:49:00,67.2,64.8,29.77,SE,136,5.0,18.0,92,0.00,,---,0.00,VWS V14.01,2013-03-10 00:49:00,
2013-03-09 18:54:00,67.1,64.7,29.77,ESE,117,4.0,18.0,92,0.00,,---,0.00,VWS V14.01,2013-03-10 00:54:00,
2013-03-09 18:59:00,67.1,64.7,29.77,ESE,118,5.0,18.0,92,0.00,,---,0.00,VWS V14.01,2013-03-10 00:59:00,
2013-03-09 19:04:00,67.1,65.0,29.77,East,85,6.0,11.0,93,0.00,,---,0.00,VWS V14.01,2013-03-10 01:04:00,
2013-03-09 19:09:00,67.1,65.0,29.77,SE,129,7.0,12.0,93,0.00,,---,0.00,VWS V14.01,2013-03-10 01:09:00,
2013-03-09 19:14:00,67.1,65.0,29.78,SE,132,7.0,12.0,93,0.00,,---,0.00,VWS V14.01,2013-03-10 01:14:00,
2013-03-09 19:19:00,67.1,65.0,29.78,SE,129,7.0,12.0,93,0.00,,---,0.00,VWS V14.01,2013-03-10 01:19:00,
2013-03-09 19:24:00,67.1,65.0,29.78,ESE,120,7.0,12.0,93,0.00,,---,0.00,VWS V14.01,2013-03-10 01:24:00,
2013-03-09 19:30:00,67.1,65.0,29.78,ESE,117,8.0,12.0,93,0.00,,---,0.00,VWS V14.01,2013-03-10 01:30:00,
2013-03-09 19:35:00,67.0,64.9,29.78,ESE,109,11.0,12.0,93,0.00,,---,0.00,VWS V14.01,2013-03-10 01:35:00,
2013-03-09 19:40:00,67.0,64.9,29.78,ESE,107,12.0,12.0,93,0.00,,---,0.00,VWS V14.01,2013-03-10 01:40:00,
2013-03-09 19:45:00,67.0,64.9,29.77,SSE,162,7.0,15.0,93,0.00,,---,0.00,VWS V14.01,2013-03-10 01:45:00,
2013-03-09 19:49:00,66.9,64.8,29.77,ESE,120,16.0,16.0,93,0.00,,---,0.00,VWS V14.01,2013-03-10 01:49:00,
2013-03-09 19:55:00,67.0,64.9,29.77,ESE,122,7.0,16.0,93,0.00,,---,0.00,VWS V14.01,2013-03-10 01:55:00,
2013-03-09 20:00:00,66.9,64.8,29.77,ESE,109,6.0,16.0,93,0.00,,---,0.00,VWS V14.01,2013-03-10 02:00:00,
2013-03-09 20:05:00,66.9,64.8,29.78,East,89,6.0,9.0,93,0.00,,---,0.00,VWS V14.01,2013-03-10 02:05:00,
2013-03-09 20:09:00,66.9,64.8,29.78,SE,125,6.0,11.0,93,0.00,,---,0.00,VWS V14.01,2013-03-10 02:09:00,
2013-03-09 20:14:00,67.0,64.9,29.78,ESE,119,6.0,11.0,93,0.00,,---,0.00,VWS V14.01,2013-03-10 02:14:00,
2013-03-09 20:19:00,67.0,64.9,29.78,ESE,117,11.0,11.0,93,0.00,,---,0.00,VWS V14.01,2013-03-10 02:19:00,
2013-03-09 20:25:00,67.0,64.9,29.78,South,172,4.0,12.0,93,0.00,,---,0.00,VWS V14.01,2013-03-10 02:25:00,
2013-03-09 20:30:00,67.1,65.0,29.78,SE,129,10.0,13.0,93,0.00,,---,0.00,VWS V14.01,2013-03-10 02:30:00,
2013-03-09 20:35:00,67.1,65.0,29.77,ESE,118,10.0,13.0,93,0.00,,---,0.00,VWS V14.01,2013-03-10 02:35:00,
2013-03-09 20:40:00,67.1,65.0,29.77,SE,127,8.0,13.0,93,0.00,,---,0.00,VWS V14.01,2013-03-10 02:40:00,
2013-03-09 20:45:00,67.2,65.1,29.77,ESE,115,10.0,14.0,93,0.00,,---,0.00,VWS V14.01,2013-03-10 02:45:00,
2013-03-09 20:50:00,67.2,65.1,29.77,ESE,119,8.0,14.0,93,0.00,,---,0.00,VWS V14.01,2013-03-10 02:50:00,
2013-03-09 20:55:00,67.3,65.2,29.77,SE,141,9.0,14.0,93,0.00,,---,0.00,VWS V14.01,2013-03-10 02:55:00,
2013-03-09 21:00:00,67.3,65.2,29.78,East,90,10.0,14.0,93,0.00,,---,0.00,VWS V14.01,2013-03-10 03:00:00,
2013-03-09 21:05:00,67.3,65.2,29.77,East,101,7.0,14.0,93,0.00,,---,0.00,VWS V14.01,2013-03-10 03:05:00,
2013-03-09 21:10:00,67.3,65.2,29.77,ESE,114,8.0,14.0,93,0.00,,---,0.00,VWS V14.01,2013-03-10 03:10:00,
2013-03-09 21:15:00,67.4,65.3,29.77,ESE,112,8.0,14.0,93,0.00,,---,0.00,VWS V14.01,2013-03-10 03:15:00,
2013-03-09 21:20:00,67.3,65.2,29.77,SE,126,10.0,14.0,93,0.00,,---,0.00,VWS V14.01,2013-03-10 03:20:00,
2013-03-09 21:25:00,67.3,65.2,29.76,SE,129,5.0,14.0,93,0.00,,---,0.00,VWS V14.01,2013-03-10 03:25:00,
2013-03-09 21:30:00,67.3,65.2,29.77,ESE,105,3.0,14.0,93,0.00,,---,0.00,VWS V14.01,2013-03-10 03:30:00,
2013-03-09 21:35:00,67.3,65.2,29.77,SE,124,5.0,14.0,93,0.00,,---,0.00,VWS V14.01,2013-03-10 03:35:00,
2013-03-09 21:40:00,67.3,65.2,29.77,ESE,122,8.0,14.0,93,0.00,,---,0.00,VWS V14.01,2013-03-10 03:40:00,
2013-03-09 21:45:00,67.3,65.2,29.77,SSE,164,7.0,14.0,93,0.00,,---,0.00,VWS V14.01,2013-03-10 03:45:00,
2013-03-09 21:50:00,67.3,65.2,29.77,SSE,153,4.0,14.0,93,0.00,,---,0.00,VWS V14.01,2013-03-10 03:50:00,
2013-03-09 21:55:00,67.3,65.2,29.77,SE,128,7.0,14.0,93,0.00,,---,0.00,VWS V14.01,2013-03-10 03:55:00,
2013-03-09 22:00:00,67.3,65.5,29.76,ESE,105,5.0,14.0,94,0.00,,---,0.00,VWS V14.01,2013-03-10 04:00:00,
2013-03-09 22:05:00,67.3,65.5,29.76,SSE,152,7.0,11.0,94,0.00,,---,0.00,VWS V14.01,2013-03-10 04:05:00,
2013-03-09 22:10:00,67.3,65.5,29.76,ESE,116,6.0,12.0,94,0.00,,---,0.00,VWS V14.01,2013-03-10 04:10:00,
2013-03-09 22:15:00,67.4,65.6,29.76,SE,139,5.0,12.0,94,0.00,,---,0.00,VWS V14.01,2013-03-10 04:15:00,
2013-03-09 22:20:00,67.5,65.7,29.76,SE,127,11.0,12.0,94,0.00,,---,0.00,VWS V14.01,2013-03-10 04:20:00,
2013-03-09 22:25:00,67.5,65.7,29.75,SSE,148,10.0,14.0,94,0.00,,---,0.00,VWS V14.01,2013-03-10 04:25:00,
2013-03-09 22:30:00,67.7,65.9,29.75,SE,129,8.0,14.0,94,0.00,,---,0.00,VWS V14.01,2013-03-10 04:30:00,
2013-03-09 22:35:00,67.8,66.0,29.75,SSE,162,10.0,14.0,94,0.00,,---,0.00,VWS V14.01,2013-03-10 04:35:00,
2013-03-09 22:40:00,67.9,66.1,29.75,ESE,117,11.0,14.0,94,0.00,,---,0.00,VWS V14.01,2013-03-10 04:40:00,
2013-03-09 22:45:00,67.8,66.0,29.74,SSE,159,10.0,14.0,94,0.00,,---,0.00,VWS V14.01,2013-03-10 04:45:00,
2013-03-09 22:50:00,67.8,66.0,29.74,South,169,6.0,14.0,94,0.00,,---,0.00,VWS V14.01,2013-03-10 04:50:00,
2013-03-09 22:55:00,67.9,66.1,29.73,South,183,9.0,15.0,94,0.00,,---,0.00,VWS V14.01,2013-03-10 04:55:00,
2013-03-09 23:00:00,67.9,66.1,29.73,SSE,149,6.0,15.0,94,0.00,,---,0.00,VWS V14.01,2013-03-10 05:00:00,
2013-03-09 23:05:00,67.8,66.0,29.72,South,175,5.0,14.0,94,0.00,,---,0.00,VWS V14.01,2013-03-10 05:05:00,
2013-03-09 23:10:00,67.9,66.1,29.72,SSW,208,13.0,17.0,94,0.00,,---,0.00,VWS V14.01,2013-03-10 05:10:00,
2013-03-09 23:15:00,68.0,66.2,29.72,South,181,10.0,18.0,94,0.00,,---,0.00,VWS V14.01,2013-03-10 05:15:00,
2013-03-09 23:20:00,68.1,66.3,29.72,SE,139,11.0,18.0,94,0.00,,---,0.00,VWS V14.01,2013-03-10 05:20:00,
2013-03-09 23:25:00,68.1,66.3,29.71,SE,137,14.0,18.0,94,0.00,,---,0.00,VWS V14.01,2013-03-10 05:25:00,
2013-03-09 23:30:00,68.2,66.4,29.71,SE,143,11.0,18.0,94,0.00,,---,0.00,VWS V14.01,2013-03-10 05:30:00,
2013-03-09 23:35:00,68.3,66.5,29.70,South,172,14.0,18.0,94,0.00,,---,0.00,VWS V14.01,2013-03-10 05:35:00,
2013-03-09 23:40:00,68.3,66.5,29.70,SE,141,11.0,19.0,94,0.00,,---,0.00,VWS V14.01,2013-03-10 05:40:00,
2013-03-09 23:45:00,68.3,66.2,29.70,SSE,157,9.0,25.0,93,0.00,,---,0.00,VWS V14.01,2013-03-10 05:45:00,
2013-03-09 23:50:00,68.2,66.1,29.69,South,172,4.0,25.0,93,0.00,,---,0.00,VWS V14.01,2013-03-10 05:50:00,
2013-03-09 23:55:00,68.2,66.4,29.70,SE,146,9.0,25.0,94,0.00,,---,0.00,VWS V14.01,2013-03-10 05:55:00,